Simultaneous Nadir Overpasses (SNOs) Predictions

Prediction of SNOs between FY3D and AQUA Satellite Orbit:

Table of predicted SNOs for the next 14.0 days since TLE Epoch: 7/30/2022
Index Date (FY3D) Time (FY3D) Lat,Lon (FY3D) SZA (FY3D ) Date (AQUA) Time (AQUA) Lat,Lon (AQUA) SZA (AQUA ) Distance(km) Time Diff (sec)
1 07/31/2022 17:06:53 76.55, -89.11 58.78 07/31/2022 17:07:25 76.54, -89.03 58.76 2.42 32
2 07/31/2022 17:57:10 -75.30, 82.47 122.67 07/31/2022 17:56:25 -75.31, 82.41 122.65 1.92 45
3 08/03/2022 07:43:32 77.51, 47.78 60.63 08/03/2022 07:44:46 77.57, 47.86 60.65 6.50 74
4 08/03/2022 08:33:43 -76.05,-139.00 121.16 08/03/2022 08:33:39 -76.04,-138.98 121.16 0.84 4
5 08/05/2022 23:10:15 -76.68, -0.39 119.71 08/05/2022 23:10:52 -76.67, -0.29 119.74 2.92 37
6 08/06/2022 00:00:35 75.46, 171.18 58.88 08/05/2022 23:59:54 75.47, 171.13 58.90 1.48 41
7 08/08/2022 13:50:06 -80.90, 74.79 107.56 08/08/2022 13:51:19 -81.57, 73.81 107.36 76.57 73
8 08/08/2022 14:37:07 76.13, -50.07 60.37 08/08/2022 14:37:07 76.13, -50.08 60.37 0.37 0
9 08/08/2022 15:24:42 -66.47, 135.93 129.53 08/08/2022 15:23:29 -66.33, 134.85 129.74 50.95 73
10 08/11/2022 05:13:36 76.64, 88.98 61.73 08/11/2022 05:14:17 76.64, 88.99 61.72 0.24 41



Historial Predications of SNOs between FY3D and AQUA
